Sexton Summit, OR

3:10 AM PDT on May 23, 2018 (GMT -0700)
Sexton Summit

Weather History for KSXT - October, 2013

Change the Weather History Date:

Sunday, October 6, 2013

  Actual Average Record
Temperature  
Mean Temperature 58 °F -  
Max Temperature 66 °F 59 °F 81 °F (2014)
Min Temperature 52 °F 44 °F 35 °F (2007)
Degree Days  
Heating Degree Days 7    
Growing Degree Days 8 (Base 50)    
Moisture  
Dew Point 27 °F    
Average Humidity 32    
Maximum Humidity 48    
Minimum Humidity 21    
Precipitation  
Precipitation 0.00 in - - ()
Sea Level Pressure  
Sea Level Pressure 30.05 in    
Wind  
Wind Speed 10 mph (South)    
Max Wind Speed 13 mph    
Max Gust Speed 23 mph    
Visibility 10 miles    
Events      
Averages and records for this station are not official NWS values.
T = Trace of Precipitation, MM = Missing Value Source: NWS Daily Summary

Daily Weather History Graph

Daily Weather History Graph

Search for Another Location

Airport or City:

Astronomy

Oct. 06, 2013 Rise Set
Actual Time 7:16 AM PDT 6:45 PM PDT
Civil Twilight 6:48 AM PDT 7:13 PM PDT
Nautical Twilight 6:15 AM PDT 7:46 PM PDT
Astronomical Twilight 5:42 AM PDT 8:19 PM PDT
Moon 9:10 AM PDT (10/6) 7:45 PM PDT (10/6)
Length of Visible Light 12h 25m
Length of Day
11h 28m
Waxing Crescent, 4% of the Moon is Illuminated
Oct 6
Waxing Crescent
Oct 11
First Quarter
Oct 18
Full
Oct 26
Last Quarter
Nov 3
New

Hourly Weather History & Observations

Time (PDT) Temp. Dew Point Humidity Pressure Visibility Wind Dir Wind Speed Gust Speed Precip Events Conditions
12:56 AM 55.9 °F 27.0 °F 33% 30.12 in 10.0 mi SSW 10.4 mph - N/A   Clear
1:56 AM 55.9 °F 26.1 °F 32% 30.11 in 10.0 mi SSW 12.7 mph - N/A   Clear
2:56 AM 55.0 °F 28.0 °F 35% 30.08 in 10.0 mi South 11.5 mph - N/A   Clear
3:56 AM 55.0 °F 25.0 °F 31% 30.06 in 10.0 mi South 12.7 mph - N/A   Clear
4:56 AM 53.1 °F 30.9 °F 43% 30.05 in 10.0 mi SSE 10.4 mph - N/A   Clear
5:56 AM 54.0 °F 33.1 °F 45% 30.06 in 10.0 mi South 11.5 mph - N/A   Clear
6:56 AM 54.0 °F 33.1 °F 45% 30.06 in 10.0 mi South 12.7 mph - N/A   Clear
7:56 AM 53.1 °F 34.0 °F 48% 30.06 in 10.0 mi SSE 9.2 mph - N/A   Clear
8:56 AM 57.0 °F 33.1 °F 40% 30.06 in 10.0 mi South 9.2 mph - N/A   Clear
9:56 AM 59.0 °F 33.1 °F 38% 30.06 in 10.0 mi South 8.1 mph - N/A   Clear
10:56 AM 62.1 °F 32.0 °F 32% 30.06 in 10.0 mi South 10.4 mph 17.3 mph N/A   Clear
11:56 AM 61.0 °F 30.9 °F 32% 30.06 in 10.0 mi South 10.4 mph 20.7 mph N/A   Clear
12:56 PM 63.0 °F 28.9 °F 28% 30.06 in 10.0 mi South 10.4 mph 23.0 mph N/A   Clear
1:56 PM 64.0 °F 32.0 °F 30% 30.04 in 10.0 mi South 8.1 mph - N/A   Clear
2:56 PM 64.9 °F 32.0 °F 29% 30.03 in 10.0 mi South 5.8 mph - N/A   Clear
3:56 PM 64.0 °F 30.0 °F 28% 30.03 in 10.0 mi Variable 4.6 mph - N/A   Clear
4:56 PM 62.1 °F 23.0 °F 22% 30.04 in 10.0 mi Variable 6.9 mph - N/A   Clear
5:56 PM 59.0 °F 21.0 °F 23% 30.04 in 10.0 mi Variable 6.9 mph - N/A   Clear
6:56 PM 57.0 °F 19.9 °F 24% 30.04 in 10.0 mi SW 12.7 mph 18.4 mph N/A   Clear
7:56 PM 57.0 °F 17.1 °F 21% 30.04 in 10.0 mi SW 8.1 mph 21.9 mph N/A   Clear
8:56 PM 55.9 °F 19.0 °F 24% 30.02 in 10.0 mi SW 12.7 mph 20.7 mph N/A   Clear
9:56 PM 54.0 °F 19.9 °F 26% 30.02 in 10.0 mi South 11.5 mph - N/A   Clear
10:56 PM 52.0 °F 19.9 °F 28% 30.02 in 10.0 mi South 11.5 mph - N/A   Clear
11:56 PM 52.0 °F 19.9 °F 28% 30.01 in 10.0 mi SSE 10.4 mph 17.3 mph N/A   Clear